User: anonymous   Login
Location: Albany
(35.0000°S, 118.0000°E)
Time: 21:52:01
(UTC-04:00)
Language:

Transit 2A - Orbit

View from above orbital plane
View from above orbital plane
View from above satellite
View from above satellite

Ground track
Ground track

The orbit data is extracted from the following two-line orbital elements,

1    45U 60007A   17291.46114358 -.00000050 +00000-0 +14606-4 0  9991
2    45 066.6948 064.8026 0261791 302.9352 054.6813 14.33571794926408
Epoch (UTC): 18 October 2017 11:04:02
Eccentricity: 0.0261791
inclination: 66.6948°
perigee height: 592 km
apogee height: 967 km
right ascension of ascending node: 64.8026°
argument of perigee: 302.9352°
revolutions per day: 14.33571794
mean anomaly at epoch: 54.6813°
orbit number at epoch: 92640

The dashed part of the orbit path shows where the satellite is in the earth's shadow,  

DLR